#timestamp,LO_Frequency,Hit,StdDev 
1558641615.4,286046997.1,N
1558641635.3,286046997.2,N
1558641655.1,286046995.4,N
1558641675.9,286046995.3,N
1558641695.7,286046997.1,N
1558641715.5,286046996.6,N
1558641735.4,286046997.2,N
1558641755.2,286046999.6,N
1558641775.0,286047001.1,N
1558641775.9,286047001.1,N
1558641795.8,286046999.6,N
1558641815.6,286046998.8,N
1558641835.5,286046998.6,N
1558641855.3,286046998.6,N
1558641875.1,286047000.2,N
1558641895.9,286046996.5,N
1558641915.7,286046996.6,N
1558641935.5,286046996.9,N
1558641955.4,286046997.5,N
1558641975.2,286046999.5,N
1558641995.0,286046997.2,N
1558641996.0,286046997.2,N
1558642015.8,286046996.6,N
1558642035.6,286046997.7,N
1558642055.5,286046996.8,N
1558642075.3,286046995.5,N
1558642095.1,286046997.5,N
1558642115.9,286046998.4,N
1558642135.7,286046999.2,N
1558642155.5,286046997.6,N
1558642175.4,286046997.4,N
1558642195.2,286046995.4,Y
1558642215.1,286047000.9,P
1558642216.0,286047000.9,N
1558642235.8,286047002.2,N
1558642255.6,286047002.0,N
1558642275.5,286047001.9,N
1558642295.3,286047003.3,N
1558642315.2,286047001.8,N
1558642335.9,286047002.0,N
1558642355.7,286047003.4,N
1558642375.6,286047005.0,Y
1558642395.4,286047002.8,P
1558642415.2,286047002.1,P
1558642435.1,286047001.5,P
1558642436.0,286047001.5,N
1558642455.8,286047002.3,Y
1558642475.7,286047000.9,P
1558642495.5,286046998.7,N
1558642515.3,286046999.9,N
1558642535.2,286046999.8,N
1558642555.0,286047000.4,N
1558642555.9,286047000.4,N
1558642575.7,286047000.6,N
1558642595.6,286046999.8,N
1558642615.4,286047000.6,N
1558642635.3,286046999.7,N
1558642655.1,286047002.5,Y
1558642656.0,286047002.5,P
1558642675.8,286047001.5,N
1558642695.7,286047004.4,P
1558642715.5,286047002.2,N
1558642735.3,286047002.6,N
1558642755.2,286047002.7,N
1558642775.0,286047002.1,N
1558642775.9,286047002.1,N
1558642795.8,286047001.9,N
1558642815.6,286047000.9,N
1558642835.4,286047000.3,N
1558642855.3,286047000.8,N
1558642875.1,286046999.9,N
1558642895.8,286047001.0,N
1558642915.7,286046999.8,N
1558642935.5,286046999.8,N
1558642955.4,286047001.1,N
1558642975.2,286046998.4,N
1558642995.0,286046998.2,N
1558642995.9,286046998.2,N
1558643015.8,286046999.0,N
1558643035.6,286046999.4,N
1558643055.5,286047000.6,N
1558643075.3,286047001.1,N
1558643095.1,286046999.2,N
1558643115.9,286046999.1,N
1558643135.7,286046998.2,N
1558643155.5,286047000.3,N
1558643175.4,286047000.8,N
1558643195.2,286046997.1,N
1558643215.1,286046997.2,N
1558643216.0,286046997.2,N
1558643235.8,286046997.3,N
1558643255.6,286046998.2,N
1558643275.5,286046995.4,N
1558643295.3,286046994.8,N
1558643315.2,286046993.1,Y
1558643335.9,286046991.9,P
1558643355.7,286046992.2,N
1558643375.6,286046993.6,N
1558643395.4,286046992.1,N
1558643415.2,286046994.4,N
1558643435.1,286046996.1,N
1558643436.0,286046996.1,N
1558643455.8,286046996.0,N
1558643475.7,286046995.2,N
1558643495.5,286046995.7,N
1558643515.3,286046993.6,Y
1558643535.2,286047001.2,P
1558643555.0,286046998.2,N
1558643555.9,286046998.2,N
1558643575.7,286046996.5,N
1558643595.6,286046999.5,N
1558643615.4,286046998.8,N
1558643635.3,286047000.3,N
1558643655.1,286046998.3,N
1558643656.0,286046998.3,N
1558643675.8,286046997.8,N
1558643695.7,286046997.6,N
1558643715.5,286046998.9,N
1558643735.3,286046998.3,N
1558643755.2,286047000.2,N
1558643775.0,286047002.1,N
1558643775.9,286047002.1,N
1558643795.8,286047000.5,N
1558643815.6,286047002.1,N
1558643835.4,286047002.6,N
1558643855.3,286047002.5,N
1558643875.1,286047000.5,N
1558643876.0,286047000.5,N
1558643895.8,286047000.5,N
1558643915.7,286046998.7,N
1558643935.5,286046998.3,N
1558643955.3,286046998.3,N
1558643975.2,286046997.1,N
1558643995.0,286046997.5,N
1558643995.9,286046997.5,N
1558644015.8,286046994.9,N
1558644035.6,286046995.3,N
1558644055.4,286046999.1,N
1558644075.3,286046997.0,N
1558644095.1,286046998.0,N
1558644115.9,286046995.0,N
1558644135.7,286046995.1,N
1558644155.5,286046996.5,N
1558644175.4,286047000.7,N
1558644195.2,286047002.7,N
1558644215.0,286047001.9,N
1558644215.9,286047001.9,N
1558644235.8,286047000.2,N
1558644255.6,286047000.3,N
1558644275.5,286047000.1,N
1558644295.3,286047001.1,N
1558644315.1,286046997.2,N
1558644335.9,286046997.3,N
1558644355.7,286046997.4,N
1558644375.5,286046995.4,N
1558644395.4,286046995.4,N
1558644415.2,286046997.3,N
1558644435.1,286046999.0,N
1558644436.0,286046999.0,N
1558644455.8,286046999.5,N
1558644475.6,286047000.9,N
1558644495.5,286047002.0,N
1558644515.3,286047002.6,N
1558644535.2,286047000.4,N
1558644555.9,286046998.2,N
1558644575.7,286046998.9,N
1558644595.6,286046998.4,N
1558644615.4,286046999.0,N
1558644635.2,286046997.2,N
1558644655.1,286046995.2,N
1558644656.0,286046995.2,N
1558644675.8,286046994.1,N
1558644695.7,286046997.6,N
1558644715.5,286046998.5,N
1558644735.3,286047001.5,N
1558644755.2,286047002.7,N
1558644775.9,286046999.0,N
1558644795.7,286047000.4,N
1558644845.6,286046996.9,E
1558644855.5,286047000.7,N
1558644875.4,286047002.2,P
1558644895.2,286047005.4,P
1558644915.0,286047003.8,N
1558644915.9,286047003.8,N
1558644935.8,286047003.9,N
1558644955.6,286047003.7,N
1558644975.4,286047003.1,N
1558644995.3,286047005.9,Y
1558645015.1,286047000.4,P
1558645035.9,286047002.3,N
1558645055.7,286047004.0,P
1558645075.5,286047004.0,N
1558645095.4,286047004.2,Y
1558645115.2,286046999.0,P
1558645135.1,286046999.4,N
1558645136.0,286046999.4,N
1558645155.8,286046998.1,N
1558645175.6,286046995.4,N
1558645195.5,286046993.3,Y
